[[{"header":{"parameterUnit":"m.s-1","parameterCategory":1,"la1":30.2991,"la2":30.254,"lo1":-89.0895,"lo2":-89.0444,"dy":0.0017,"dx":0.0017,"nx":28,"ny":28,"refTime":"2025-07-24T09:00:00:Z","depth":0,"parameterNumber":2,"parameterNumberName":"U-component_of_WINDS"},"data":[0,0,0,0,0,0,0,0,0,0,0,0,0,0,0,0,0,0,0,0,0,0,0,0,0,0,0,0,0,0,0,0,0,0,0,0,0,0,0,0,0,0,0,0,0,0,0,0,0,0,0,0,0,0,0,0,0,0,-0.8356,-0.8357,0,-0.8486,-0.8487,-0.8489,-0.8505,-0.8504,-0.8502,-0.8501,-0.864,-0.8645,-0.8649,0,0,0,0,0,0,0,0,0,0,0,0,0,-0.8127,-0.8131,-0.8356,-0.8358,-0.8359,-0.8486,-0.8487,-0.8489,-0.8505,-0.8504,-0.8502,-0.8501,-0.8638,-0.8644,-0.865,0,0,0,0,0,0,0,0,0,0,0,0,0,-0.8239,-0.8133,-0.8356,-0.8382,-0.8386,-0.8485,-0.8487,-0.849,-0.8505,-0.8504,-0.8502,-0.85,-0.8636,-0.8643,-0.8651,-0.8734,0,0,-0.8673,-0.8676,0,0,0,0,0,0,0,0,-0.8233,-0.8247,-0.8377,-0.8381,-0.8385,-0.8477,-0.8458,-0.8572,-0.8506,-0.846,-0.8501,-0.8499,-0.8588,-0.8599,-0.8628,-0.8741,-0.8747,-0.8674,-0.8678,-0.8681,-0.8683,0,0,0,0,0,0,0,-0.8225,-0.8242,-0.8408,-0.8379,-0.8384,-0.8389,-0.8403,-0.8479,-0.8533,-0.8464,-0.8465,-0.848,-0.859,-0.8621,-0.8631,-0.8749,-0.8674,-0.868,-0.8685,-0.8687,-0.8939,-0.8942,0,0,0,0,0,0,-0.8211,-0.8235,-0.8403,-0.8411,-0.8302,-0.8395,-0.841,-0.845,-0.8532,-0.8543,-0.8482,-0.8481,-0.8609,-0.8622,-0.8636,-0.8741,-0.8681,-0.8688,-0.8692,-0.8937,-0.894,-0.8942,0,0,0,0,0,0,-0.8206,-0.8226,-0.8398,-0.8324,-0.8346,-0.8401,-0.8445,-0.8453,-0.8484,-0.8546,-0.8556,-0.8503,-0.8608,-0.8626,-0.871,-0.8746,-0.8692,-0.8698,-0.8934,-0.8938,-0.8941,-0.8951,0,0,0,0,0,0,-0.82,-0.8224,-0.8255,-0.8324,-0.835,-0.8468,-0.8447,-0.8457,-0.8496,-0.8496,-0.8569,-0.8579,-0.8608,-0.8699,-0.8717,-0.8755,-0.8704,-0.8931,-0.8936,-0.894,-0.8947,-0.8954,-0.896,0,0,0,0,0,-0.8191,-0.8254,-0.8257,-0.8277,-0.839,-0.847,-0.8485,-0.8515,-0.8499,-0.8532,-0.8571,-0.8577,-0.8738,-0.8707,-0.8728,-0.8769,-0.8929,-0.8935,-0.894,-0.8945,-0.8953,-0.8959,0,0,0,0,0,0,-0.819,-0.8263,-0.8268,-0.8354,-0.8405,-0.8473,-0.8515,-0.8523,-0.8582,-0.8579,-0.8616,-0.8632,-0.8715,-0.875,-0.8714,-0.8855,-0.8833,-0.8842,-0.8829,-0.8838,-0.8843,-0.8834,-0.871,0,0,0,0,0,-0.8199,-0.8256,-0.8318,-0.8388,-0.8414,-0.846,-0.8496,-0.8514,-0.857,-0.8593,-0.8639,-0.8695,-0.8758,-0.8799,-0.8861,-0.8952,-0.8969,-0.899,-0.8996,-0.9001,-0.901,-0.9062,-0.9073,-0.8959,-0.8959,-0.8959,0,0,-0.822,-0.8267,-0.8301,-0.8389,-0.8431,-0.8492,-0.8478,-0.8543,-0.8589,-0.8604,-0.8686,-0.8721,-0.8786,-0.8874,-0.8915,-0.8906,-0.9044,-0.9008,-0.9011,-0.9017,-0.9069,-0.9079,-0.9089,-0.8963,-0.8962,-0.8962,0,0,-0.8289,-0.8329,-0.8392,-0.8435,-0.8498,-0.8528,-0.8543,-0.8609,-0.8633,-0.8716,-0.8728,-0.8784,-0.8892,-0.8938,-0.8976,-0.9062,-0.907,-0.9081,-0.9114,-0.9164,-0.9173,-0.9182,-0.9215,-0.9226,-0.9089,-0.9089,-0.9089,0,-0.8307,-0.8397,-0.8425,-0.8489,-0.8528,-0.8542,-0.8608,-0.8648,-0.8729,-0.8757,-0.8744,-0.8881,-0.8925,-0.9025,-0.9046,-0.9075,-0.9095,-0.9074,-0.9169,-0.9178,-0.9186,-0.9218,-0.923,-0.909,-0.909,-0.909,-0.9089,0,-0.8417,-0.8479,-0.8523,-0.86,-0.8644,-0.8708,-0.8748,-0.8789,-0.8804,-0.8836,-0.8921,-0.8974,-0.9047,-0.9072,-0.9087,-0.9175,-0.9167,-0.9161,-0.914,-0.9197,-0.9228,-0.924,-0.9091,-0.9091,-0.9091,-0.909,0,0,-0.8491,-0.858,-0.8596,-0.8631,-0.8702,-0.8752,-0.8818,-0.8888,-0.8924,-0.8979,-0.9037,-0.9128,-0.9123,-0.9165,-0.9186,-0.923,-0.9297,-0.922,-0.9222,-0.9234,-0.9399,-0.9405,-0.9418,-0.9302,-0.9304,-0.9306,-0.9395,0,-0.857,-0.8685,-0.8712,-0.8813,-0.8872,-0.8885,-0.8943,-0.8994,-0.9025,-0.9082,-0.9117,-0.9182,-0.9169,-0.9195,-0.9239,-0.928,-0.9331,-0.9273,-0.9359,-0.9362,-0.9345,-0.9434,-0.944,-0.9521,-0.9407,-0.9409,-0.941,0,-0.8677,-0.8733,-0.8839,-0.8903,-0.8928,-0.898,-0.9047,-0.9099,-0.9157,-0.9177,-0.9224,-0.924,-0.9312,-0.9285,-0.9385,-0.9345,-0.9381,-0.9407,-0.9411,-0.9422,-0.9391,-0.945,-0.9548,-0.9561,-0.9429,-0.9427,-0.9426,0,-0.8723,-0.8825,-0.8902,-0.8931,-0.9006,-0.9042,-0.9076,-0.9132,-0.9173,-0.9231,-0.9259,-0.9325,-0.9363,-0.9415,-0.9449,-0.9426,-0.9548,-0.9523,-0.9569,-0.9568,-0.9596,-0.9594,-0.9703,-0.9615,-0.9615,-0.9614,-0.9614,0,-0.881,-0.8875,-0.8923,-0.8971,-0.9045,-0.9075,-0.9148,-0.9182,-0.9232,-0.9288,-0.9303,-0.9356,-0.9397,-0.9456,-0.9483,-0.9564,-0.958,-0.96,-0.9607,-0.96,-0.9598,-0.9626,-0.9623,-0.9618,-0.9617,-0.9616,-0.9616,0,-0.8875,-0.8909,-0.8995,-0.9058,-0.9076,-0.9127,-0.9183,-0.9231,-0.9262,-0.9333,-0.9351,-0.9401,-0.9471,-0.951,-0.9598,-0.9617,-0.9707,-0.971,-0.9687,-0.9691,-0.9735,-0.9731,-0.9868,-0.9889,-0.9784,-0.9785,-0.9786,0,-0.8929,-0.8979,-0.9047,-0.9085,-0.9119,-0.9179,-0.922,-0.9252,-0.9295,-0.9365,-0.9405,-0.9475,-0.9534,-0.9645,-0.9691,-0.9759,-0.9766,-0.9809,-0.9776,-0.9768,-0.9769,-0.9767,-0.9773,-0.9815,-0.9816,-0.9817,-0.9818,0,-0.9023,-0.9037,-0.9095,-0.9158,-0.9206,-0.9259,-0.931,-0.9341,-0.9382,-0.9429,-0.95,-0.9545,-0.9634,-0.9705,-0.9777,-0.9814,-0.9824,-0.9827,-0.9842,-0.9837,-0.9822,-0.9833,-0.9705,-0.9824,-0.9824,-0.9823,-0.9823,-0.9823,-0.9086,-0.9132,-0.9187,-0.9251,-0.9292,-0.934,-0.9389,-0.9425,-0.9484,-0.9558,-0.9573,-0.9649,-0.9707,-0.9804,-0.9843,-0.9904,-0.9896,-0.9916,-0.9922,-0.9928,-0.9931,-0.981,-0.9917,-0.9916,-0.9916,-0.9916,-0.9916,0,-0.9183,-0.9218,-0.9276,-0.9348,-0.9398,-0.94,-0.9457,-0.95,-0.9566,-0.9618,-0.9675,-0.9757,-0.9826,-0.9876,-0.9946,-0.9986,-0.9992,-1.0004,-1.0003,-1.0011,-0.9932,-0.9914,-0.9997,-0.9997,-0.9997,-0.9997,-0.9997,-0.9997,-0.9239,-0.9317,-0.9338,-0.9437,-0.9473,-0.9545,-0.9578,-0.9624,-0.9665,-0.9756,-0.9812,-0.9843,-0.9896,-0.997,-1.0034,-1.0047,-1.0074,-1.0085,-1.0099,-1.0025,-1.0017,-1.0009,-0.9991,-1.009,-1.009,-1.0174,-1.0174,-1.0175]},{"header":{"parameterUnit":"m.s-1","parameterCategory":1,"la1":30.2991,"la2":30.254,"lo1":-89.0895,"lo2":-89.0444,"dy":0.0017,"dx":0.0017,"nx":28,"ny":28,"refTime":"2025-07-24T09:00:00:Z","depth":0,"parameterNumber":3,"parameterNumberName":"V-component_of_WINDS"},"data":[0,0,0,0,0,0,0,0,0,0,0,0,0,0,0,0,0,0,0,0,0,0,0,0,0,0,0,0,0,0,0,0,0,0,0,0,0,0,0,0,0,0,0,0,0,0,0,0,0,0,0,0,0,0,0,0,0,0,-2.5102,-2.5102,0,-2.5162,-2.5162,-2.5163,-2.5161,-2.516,-2.5159,-2.5158,-2.5214,-2.5216,-2.5218,0,0,0,0,0,0,0,0,0,0,0,0,0,-2.4979,-2.4982,-2.5101,-2.5102,-2.5103,-2.5162,-2.5162,-2.5163,-2.5161,-2.516,-2.5159,-2.5158,-2.5213,-2.5216,-2.5219,0,0,0,0,0,0,0,0,0,0,0,0,0,-2.5035,-2.4982,-2.5101,-2.5109,-2.511,-2.5161,-2.5162,-2.5163,-2.5161,-2.516,-2.5159,-2.5157,-2.5212,-2.5216,-2.5219,-2.5264,0,0,-2.5229,-2.5231,0,0,0,0,0,0,0,0,-2.5032,-2.504,-2.5107,-2.5109,-2.511,-2.5153,-2.514,-2.5197,-2.5161,-2.5142,-2.5158,-2.5157,-2.5194,-2.5199,-2.5213,-2.5267,-2.5269,-2.523,-2.5232,-2.5233,-2.5234,0,0,0,0,0,0,0,-2.5028,-2.5037,-2.5125,-2.5108,-2.511,-2.5108,-2.5114,-2.5151,-2.5174,-2.5143,-2.5143,-2.5151,-2.5195,-2.5209,-2.5214,-2.527,-2.5229,-2.5232,-2.5235,-2.5236,-2.5365,-2.5367,0,0,0,0,0,0,-2.5023,-2.5034,-2.5123,-2.5127,-2.5067,-2.5111,-2.5118,-2.514,-2.5174,-2.5178,-2.5152,-2.515,-2.5204,-2.521,-2.5216,-2.5272,-2.5233,-2.5236,-2.5238,-2.5364,-2.5366,-2.5367,0,0,0,0,0,0,-2.5021,-2.5031,-2.5121,-2.508,-2.5092,-2.5115,-2.5139,-2.5142,-2.5157,-2.518,-2.5184,-2.5163,-2.5204,-2.5211,-2.5253,-2.5274,-2.5238,-2.5241,-2.5362,-2.5364,-2.5366,-2.5384,0,0,0,0,0,0,-2.5017,-2.5031,-2.5049,-2.5081,-2.5094,-2.5158,-2.514,-2.5144,-2.5163,-2.5162,-2.5192,-2.5195,-2.5203,-2.5248,-2.5256,-2.5278,-2.5243,-2.536,-2.5363,-2.5366,-2.5381,-2.5386,-2.539,0,0,0,0,0,-2.5013,-2.505,-2.505,-2.5061,-2.5118,-2.516,-2.5167,-2.5177,-2.5165,-2.5183,-2.5198,-2.5194,-2.527,-2.5252,-2.5262,-2.5284,-2.5359,-2.5362,-2.5366,-2.5379,-2.5385,-2.539,0,0,0,0,0,0,-2.5017,-2.5054,-2.5055,-2.5104,-2.5129,-2.5159,-2.5182,-2.5183,-2.521,-2.5208,-2.5218,-2.5224,-2.5266,-2.5279,-2.5259,-2.533,-2.5313,-2.5318,-2.532,-2.5326,-2.533,-2.5326,-2.5246,0,0,0,0,0,-2.5025,-2.5057,-2.5087,-2.5127,-2.514,-2.5159,-2.5178,-2.5184,-2.5209,-2.5219,-2.5237,-2.526,-2.529,-2.5309,-2.5337,-2.5383,-2.5389,-2.5404,-2.5408,-2.5412,-2.5416,-2.5441,-2.5448,-2.5378,-2.5378,-2.5378,0,0,-2.5039,-2.5063,-2.5082,-2.5129,-2.5149,-2.5181,-2.5168,-2.5202,-2.5225,-2.5224,-2.5265,-2.5279,-2.5305,-2.535,-2.5371,-2.5362,-2.5437,-2.5416,-2.5418,-2.5421,-2.5445,-2.5452,-2.5458,-2.538,-2.5379,-2.5379,0,0,-2.5081,-2.5103,-2.5139,-2.5161,-2.5192,-2.5205,-2.5214,-2.5245,-2.5255,-2.5297,-2.5296,-2.5323,-2.5373,-2.5393,-2.5409,-2.546,-2.5457,-2.5469,-2.5492,-2.5517,-2.5522,-2.5527,-2.5545,-2.5552,-2.5473,-2.5473,-2.5473,0,-2.5094,-2.5144,-2.5157,-2.5193,-2.5213,-2.5215,-2.5251,-2.527,-2.5309,-2.5322,-2.5313,-2.5377,-2.5394,-2.5444,-2.5457,-2.547,-2.5479,-2.5465,-2.5521,-2.5526,-2.5531,-2.5548,-2.5555,-2.5474,-2.5474,-2.5474,-2.5474,0,-2.5158,-2.5193,-2.5218,-2.5258,-2.5281,-2.5316,-2.5334,-2.5355,-2.5359,-2.5373,-2.5415,-2.5437,-2.547,-2.5482,-2.5486,-2.5532,-2.5526,-2.5519,-2.5502,-2.5539,-2.5555,-2.5562,-2.5476,-2.5476,-2.5475,-2.5475,0,0,-2.5204,-2.5252,-2.5261,-2.528,-2.5315,-2.5342,-2.5377,-2.5411,-2.5429,-2.5456,-2.5485,-2.5528,-2.5522,-2.5541,-2.5546,-2.5569,-2.5608,-2.5559,-2.5559,-2.5567,-2.566,-2.5665,-2.5673,-2.5607,-2.5608,-2.5609,-2.5658,0,-2.5249,-2.5315,-2.5328,-2.5383,-2.5415,-2.5419,-2.5449,-2.5474,-2.5488,-2.5515,-2.5529,-2.556,-2.555,-2.5561,-2.5583,-2.5598,-2.5627,-2.5595,-2.5632,-2.5633,-2.5625,-2.5681,-2.5687,-2.5732,-2.5664,-2.5665,-2.5666,0,-2.5311,-2.5342,-2.5402,-2.5435,-2.5448,-2.5476,-2.5509,-2.5536,-2.5564,-2.5572,-2.5594,-2.5598,-2.5633,-2.5615,-2.5663,-2.5642,-2.5657,-2.5667,-2.5669,-2.5672,-2.5652,-2.5686,-2.5746,-2.5753,-2.5677,-2.5676,-2.5675,0,-2.5338,-2.5394,-2.5438,-2.5453,-2.5492,-2.5512,-2.5529,-2.5555,-2.5576,-2.5604,-2.5617,-2.5648,-2.5665,-2.5689,-2.57,-2.5686,-2.5748,-2.5731,-2.5755,-2.5754,-2.5767,-2.5766,-2.583,-2.5778,-2.5778,-2.5778,-2.5778,0,-2.5387,-2.5423,-2.545,-2.5477,-2.5517,-2.5532,-2.5571,-2.5587,-2.5611,-2.564,-2.5644,-2.567,-2.5684,-2.5712,-2.5721,-2.576,-2.5767,-2.5774,-2.5776,-2.5774,-2.5773,-2.5784,-2.5781,-2.5779,-2.5779,-2.5779,-2.5778,0,-2.5424,-2.5443,-2.5491,-2.5525,-2.5535,-2.5563,-2.5591,-2.5616,-2.5631,-2.5667,-2.5676,-2.5698,-2.5731,-2.5746,-2.5786,-2.5792,-2.5836,-2.5836,-2.5827,-2.5828,-2.5851,-2.5849,-2.5924,-2.5935,-2.5876,-2.5877,-2.5877,0,-2.5453,-2.5482,-2.552,-2.5541,-2.5559,-2.5592,-2.5614,-2.5629,-2.5651,-2.5686,-2.5706,-2.574,-2.5768,-2.5821,-2.5839,-2.587,-2.587,-2.5895,-2.5875,-2.5872,-2.587,-2.5868,-2.5871,-2.5898,-2.5899,-2.5899,-2.59,0,-2.5504,-2.5513,-2.5545,-2.5581,-2.5608,-2.5636,-2.5663,-2.5679,-2.5699,-2.5723,-2.5759,-2.5781,-2.5824,-2.5857,-2.5889,-2.5905,-2.5905,-2.5906,-2.5913,-2.5911,-2.5905,-2.5908,-2.5837,-2.5904,-2.5903,-2.5903,-2.5903,-2.5903,-2.5538,-2.5564,-2.5595,-2.5631,-2.5654,-2.568,-2.5706,-2.5725,-2.5756,-2.5793,-2.58,-2.5838,-2.5865,-2.5909,-2.5926,-2.5954,-2.5948,-2.5958,-2.5961,-2.5963,-2.5965,-2.5901,-2.596,-2.596,-2.596,-2.596,-2.596,0,-2.5589,-2.561,-2.5643,-2.5683,-2.5711,-2.5712,-2.5743,-2.5766,-2.58,-2.5826,-2.5855,-2.5895,-2.5928,-2.595,-2.5983,-2.6002,-2.6003,-2.601,-2.6008,-2.6011,-2.5968,-2.5959,-2.6008,-2.6008,-2.6008,-2.6008,-2.6008,-2.6008,-2.5618,-2.5662,-2.5675,-2.573,-2.575,-2.579,-2.5807,-2.5831,-2.5852,-2.5899,-2.5927,-2.5942,-2.5966,-2.6001,-2.6031,-2.6037,-2.6048,-2.6056,-2.606,-2.6019,-2.6014,-2.6009,-2.6001,-2.6058,-2.6058,-2.6101,-2.6102,-2.6102]}]]